Mt. Pocono, PA

1:44 AM EST on December 07, 2019 (GMT -0500)
Pocono Mountains Municipal

Weather History for KMPO - November, 2019

Change the Weather History Date:

Thursday, November 14, 2019

  Actual Average Record
Temperature  
Mean Temperature 24 °F 39 °F  
Max Temperature 31 °F 47 °F 65 °F (1955)
Min Temperature 17 °F 32 °F 5 °F (1905)
Degree Days  
Heating Degree Days 41 26  
Month to date heating degree days 450 327  
Since 1 July heating degree days 1060 1115  
Cooling Degree Days 0 0  
Month to date cooling degree days 0 0  
Year to date cooling degree days 348 314  
Moisture  
Dew Point 14 °F    
Average Humidity 63    
Maximum Humidity 69    
Minimum Humidity 56    
Precipitation  
Precipitation 0.00 in 0.15 in 1.85 in (1949)
Month to date precipitation 0.39 1.88  
Year to date precipitation 44.74 42.18  
Sea Level Pressure  
Sea Level Pressure 30.34 in    
Wind  
Wind Speed 7 mph ()    
Max Wind Speed 17 mph    
Max Gust Speed 26 mph    
Visibility 10.0 miles    
Events      
T = Trace of Precipitation, MM = Missing Value Source: Averaged Metar Reports

Daily Weather History Graph

Daily Weather History Graph

Search for Another Location

Airport or City:

Astronomy

Nov. 14, 2019 Rise Set
Actual Time 6:47 AM EST 4:43 PM EST
Civil Twilight 6:18 AM EST 5:13 PM EST
Nautical Twilight 5:45 AM EST 5:46 PM EST
Astronomical Twilight 5:12 AM EST 6:18 PM EST
Moon 6:26 PM EST (11/14) 8:41 AM EST (11/14)
Length of Visible Light 10h 54m
Length of Day
9h 55m
Waning Gibbous, 95% of the Moon is Illuminated
Nov 14
Waning Gibbous
Nov 19
Last Quarter
Nov 26
New
Dec 4
First Quarter
Dec 12
Full

Hourly Weather History & Observations

Time (EST) Temp. Windchill Dew Point Humidity Pressure Visibility Wind Dir Wind Speed Gust Speed Precip Events Conditions
12:53 AM 17.1 °F 7.6 °F 7.0 °F 65% 30.39 in 10.0 mi ESE 6.9 mph - N/A   Clear
1:53 AM 17.1 °F 8.7 °F 7.0 °F 65% 30.39 in 10.0 mi ESE 5.8 mph - N/A   Clear
2:53 AM 18.0 °F 9.8 °F 8.1 °F 65% 30.38 in 10.0 mi East 5.8 mph - N/A   Clear
3:53 AM 17.1 °F 11.7 °F 8.1 °F 68% 30.38 in 10.0 mi ESE 3.5 mph - N/A   Clear
4:53 AM 19.0 °F 10.0 °F 8.1 °F 62% 30.37 in 10.0 mi SE 6.9 mph - N/A   Clear
5:53 AM 19.0 °F 9.0 °F 7.0 °F 59% 30.38 in 10.0 mi SSE 8.1 mph - N/A   Clear
6:53 AM 19.0 °F 10.0 °F 7.0 °F 59% 30.40 in 10.0 mi SSE 6.9 mph - N/A   Clear
7:53 AM 19.9 °F 11.1 °F 8.1 °F 60% 30.42 in 10.0 mi South 6.9 mph - N/A   Clear
8:53 AM 23.0 °F 13.1 °F 12.0 °F 63% 30.40 in 10.0 mi South 9.2 mph - N/A   Clear
9:53 AM 25.0 °F 15.5 °F 15.1 °F 66% 30.38 in 10.0 mi South 9.2 mph 17.3 mph N/A   Clear
10:53 AM 27.0 °F 16.1 °F 16.0 °F 63% 30.37 in 10.0 mi SSW 12.7 mph 21.9 mph N/A   Partly Cloudy
11:53 AM 27.0 °F 16.1 °F 18.0 °F 69% 30.35 in 10.0 mi South 12.7 mph - N/A   Overcast
12:53 PM 28.0 °F 18.6 °F 17.1 °F 63% 30.34 in 10.0 mi SSW 10.4 mph - N/A   Overcast
1:53 PM 28.9 °F 20.4 °F 17.1 °F 61% 30.33 in 10.0 mi SSW 9.2 mph - N/A   Overcast
2:53 PM 30.0 °F 22.4 °F 19.0 °F 64% 30.31 in 10.0 mi SSE 8.1 mph - N/A   Clear
3:53 PM 30.0 °F 23.2 °F 19.0 °F 64% 30.31 in 10.0 mi South 6.9 mph - N/A   Clear
4:53 PM 30.0 °F 24.1 °F 19.0 °F 64% 30.30 in 10.0 mi South 5.8 mph - N/A   Partly Cloudy
5:53 PM 30.0 °F 22.4 °F 19.9 °F 66% 30.31 in 10.0 mi South 8.1 mph - N/A   Overcast
6:53 PM 30.0 °F 23.2 °F 19.0 °F 64% 30.30 in 10.0 mi Variable 6.9 mph - N/A   Overcast
7:53 PM 30.0 °F 22.4 °F 18.0 °F 61% 30.30 in 10.0 mi SW 8.1 mph - N/A   Overcast
8:53 PM 28.9 °F 21.1 °F 17.1 °F 61% 30.30 in 10.0 mi SW 8.1 mph - N/A   Mostly Cloudy
9:53 PM 28.9 °F 21.9 °F 16.0 °F 58% 30.29 in 10.0 mi West 6.9 mph - N/A   Mostly Cloudy
10:53 PM 28.0 °F 20.8 °F 16.0 °F 61% 30.28 in 10.0 mi West 6.9 mph - N/A   Mostly Cloudy
11:53 PM 27.0 °F 20.5 °F 16.0 °F 63% 30.27 in 10.0 mi WNW 5.8 mph - N/A   Clear